Theta_e
341 343 341 340 338 340 342 342 341 347 351 350 347 343 343 345 346 348 353 352 353 350 348 345 348 349 347 349 351 350 349 348 350 341 348 349 351 352 352 348 350 355 356
338 339 342 341 340 340 340 340 341 352 351 350 347 346 346 344 349 348 347 345 348 348 347 345 345 353 349 350 350 350 347 349 341 338 340 338 340 347 347 349 349 352 355
338 340 339 340 339 339 340 340 342 352 352 353 345 345 345 345 344 345 345 343 344 344 348 351 351 351 350 345 349 350 349 344 342 344 346 340 333 338 345 344 345 346 347
341 340 338 340 340 341 343 347 343 351 352 354 345 344 341 340 344 345 348 347 346 347 350 352 351 354 352 351 350 355 353 352 340 346 349 348 345 337 333 342 341 343 343
340 338 337 342 342 343 345 345 348 350 348 353 350 343 344 344 343 347 350 351 349 348 347 345 347 349 347 346 344 347 344 347 352 347 345 345 342 342 339 331 335 338 338
340 341 343 343 342 344 345 346 345 347 348 354 351 346 350 349 347 344 345 347 348 350 350 346 346 348 346 348 348 348 353 352 350 349 347 344 341 339 341 338 336 333 332
330 333 340 342 342 342 348 346 348 350 354 354 350 348 350 346 344 348 346 346 347 348 350 353 346 346 348 347 348 351 352 351 350 350 348 347 345 349 349 346 334 332 332
328 335 342 344 343 341 348 347 347 350 355 355 351 350 351 351 344 349 347 346 348 348 350 351 351 350 348 352 352 351 351 352 350 348 348 346 346 348 346 344 337 330 328
330 332 341 344 344 344 347 348 349 351 352 355 353 350 351 350 348 348 348 348 348 346 348 348 350 350 349 346 349 347 344 346 349 348 348 346 348 351 349 347 343 335 326
331 334 343 345 346 347 349 350 354 353 353 354 353 352 351 350 348 346 346 347 346 347 346 347 348 346 345 346 346 345 344 342 346 346 347 347 346 349 349 346 345 342 334
333 342 347 347 347 348 348 351 353 354 353 353 352 351 349 349 347 346 346 347 346 346 345 345 346 344 343 343 344 344 342 341 342 343 342 343 345 345 347 347 349 339 334
344 348 349 349 348 347 348 350 353 354 355 353 351 350 349 348 346 346 346 345 345 345 345 345 345 343 342 341 340 339 340 340 339 340 342 342 344 340 345 343 342 338 332
336 348 348 347 348 348 347 349 351 352 353 351 349 348 347 346 346 346 345 345 345 344 344 344 344 342 340 339 339 339 338 338 338 340 341 341 343 338 340 343 338 332 330
334 339 348 348 347 348 348 347 350 352 352 350 348 348 346 346 346 346 346 345 344 343 344 344 344 342 339 338 334 334 337 338 339 340 339 339 341 340 337 339 337 335 330
331 336 344 347 346 346 347 349 351 352 351 349 347 347 348 348 347 345 345 344 344 343 342 340 343 341 340 335 332 335 335 337 338 338 338 338 334 328 335 336 336 335 329
329 330 339 343 344 344 347 350 351 351 350 348 347 348 347 347 347 346 345 344 342 341 339 334 337 340 337 320 322 331 334 334 336 336 335 335 331 328 325 327 328 332 330
329 330 332 342 345 345 348 350 352 351 349 347 347 347 348 346 347 346 345 344 342 341 338 336 331 333 338 319 319 323 331 331 332 335 336 332 330 332 333 325 324 324 324
328 331 334 342 347 348 349 352 352 349 347 346 346 347 347 347 347 346 345 345 344 342 342 331 329 327 330 318 316 321 332 332 331 330 331 335 332 331 332 333 332 331 331
331 336 345 348 347 347 351 351 349 349 347 345 345 346 347 346 346 343 340 341 342 340 338 335 327 323 325 315 314 322 333 331 332 330 326 330 332 317 318 331 330 330 329
334 340 348 347 347 350 350 349 348 348 346 347 346 346 346 346 341 340 337 339 338 339 335 332 336 323 324 313 310 318 333 331 330 331 327 314 324 310 311 331 330 329 328
341 342 346 344 346 346 347 346 346 345 346 345 344 345 345 345 345 343 341 340 340 338 338 335 334 325 323 322 311 309 331 329 328 327 325 324 309 305 304 310 327 326 325
336 339 336 334 335 337 342 343 343 343 344 343 342 341 341 340 340 341 338 337 338 336 334 334 332 331 329 316 309 309 311 320 325 324 324 325 306 302 300 304 306 303 311
337 339 335 330 327 327 333 333 333 337 338 338 335 333 334 334 334 334 333 332 335 334 333 329 332 333 333 332 309 306 309 313 320 326 323 313 302 300 303 302 304 303 312
336 334 328 324 322 325 332 332 332 334 333 333 332 335 336 336 337 336 335 335 332 331 332 330 329 331 332 331 332 320 314 312 318 321 324 320 314 309 314 314 309 316 318
336 333 330 328 328 333 333 333 333 335 334 333 334 335 334 334 334 333 332 331 332 326 329 329 328 326 329 330 317 320 325 323 319 320 325 321 320 318 316 316 317 319 320
334 332 330 331 332 333 334 334 335 336 336 334 333 332 332 332 331 330 330 310 310 303 300 299 307 323 311 302 297 299 300 302 305 318 319 318 319 318 316 313 315 315 313
Wind_Speed
6 7 4 4 4 6 7 7 6 4 3 2 2 2 3 1 2 4 6 7 7 8 6 5 6 7 8 9 9 7 8 7 5 2 6 4 5 5 3 2 5 7 7
11 14 18 12 10 7 7 7 6 6 5 3 2 1 2 1 2 4 4 2 2 5 5 4 5 9 8 10 10 10 6 5 5 3 3 3 3 2 1 1 3 5 4
16 18 10 11 7 8 8 8 8 9 8 6 3 3 2 2 4 5 5 5 6 4 7 9 8 8 9 10 11 10 11 6 5 8 3 2 4 3 1 4 3 3 2
19 13 10 11 7 6 8 9 9 8 8 8 6 5 3 3 1 4 4 5 7 9 9 7 7 8 7 9 8 8 8 7 5 5 7 4 1 3 3 2 3 4 3
18 16 10 12 10 6 8 8 8 8 8 8 6 4 3 3 2 3 5 4 4 2 2 4 3 6 5 5 5 6 4 5 4 4 2 5 3 3 4 3 3 3 4
12 8 11 13 10 7 8 7 8 8 9 9 8 7 5 5 4 3 3 4 3 2 2 2 3 2 2 3 3 5 8 7 6 6 6 5 4 6 6 3 3 3 2
11 11 13 15 12 10 8 8 8 9 10 9 9 8 6 3 3 4 3 3 3 2 3 1 1 1 1 2 3 4 4 5 5 7 6 5 6 5 5 5 4 3 2
8 13 14 13 13 10 8 10 9 9 9 8 9 8 6 2 4 4 3 3 2 1 1 1 1 2 0 1 3 2 3 2 3 5 5 4 6 6 5 5 7 4 2
8 12 10 9 10 10 9 10 10 9 8 8 8 8 6 4 4 4 4 4 3 3 2 1 1 2 2 2 2 1 1 1 2 3 4 4 5 5 5 6 7 7 4
9 9 9 8 8 9 9 9 9 9 8 8 7 5 5 4 4 3 4 4 4 4 4 3 4 3 3 1 1 1 1 1 1 2 2 3 2 4 5 6 6 2 4
9 7 8 9 9 8 10 10 10 10 9 9 8 7 5 6 6 5 5 4 4 4 4 3 3 3 2 2 1 0 1 1 2 1 0 1 3 3 4 5 5 5 3
8 8 8 9 10 11 10 10 10 9 8 7 7 8 7 6 7 6 5 5 6 5 5 4 5 4 3 3 3 3 3 1 0 1 1 1 1 3 4 5 6 6 5
9 9 9 10 10 10 10 9 10 10 9 8 8 8 8 8 8 7 7 6 6 6 6 6 5 4 3 1 1 1 2 2 1 1 2 0 1 3 3 5 6 5 4
12 10 11 10 9 10 10 9 9 10 9 9 10 9 9 9 8 7 7 7 5 6 6 7 7 6 5 4 3 3 3 2 1 1 2 2 1 4 4 5 7 8 7
10 10 11 9 9 9 10 9 9 10 10 9 9 9 9 9 8 8 7 6 6 5 5 5 6 7 6 4 3 3 4 3 2 2 3 4 5 5 3 4 6 9 7
14 12 11 9 11 12 11 10 11 10 9 9 9 9 9 9 8 8 8 8 7 7 6 4 6 7 5 10 6 3 4 4 3 3 4 5 5 6 5 5 4 5 8
12 11 11 11 12 13 13 13 11 10 8 7 8 10 10 9 9 8 7 8 9 6 7 7 4 4 5 9 9 7 4 4 3 3 3 3 4 3 7 7 7 6 5
11 10 10 9 11 10 9 9 10 10 9 9 9 10 9 10 8 7 8 9 7 8 6 3 4 2 1 6 8 9 5 4 4 3 2 2 5 4 5 7 7 7 6
8 5 6 9 10 11 11 11 10 10 9 9 9 9 9 9 7 8 7 7 5 5 6 4 5 6 3 4 6 8 6 5 5 4 3 3 4 6 4 7 7 7 6
4 5 6 8 11 11 11 10 10 10 9 9 8 7 8 7 7 7 7 5 4 5 3 5 5 5 5 6 5 9 6 6 5 5 5 4 3 7 7 5 6 7 6
6 5 6 6 5 8 9 9 10 10 8 7 5 5 4 5 5 6 5 5 6 5 5 4 3 5 5 5 8 10 7 5 5 5 5 5 8 8 7 5 5 3 7
5 7 13 12 12 11 7 4 5 5 6 9 7 6 5 4 4 5 4 3 5 5 5 4 3 5 5 7 8 9 9 5 6 6 5 6 9 9 9 7 5 7 7
5 13 15 16 11 12 16 8 5 3 4 8 6 7 6 3 4 4 4 3 3 2 1 2 4 3 4 5 9 9 10 11 7 7 6 5 10 7 7 7 7 9 7
8 12 15 13 14 14 17 17 7 6 4 3 6 7 6 4 3 3 3 3 3 2 2 3 4 4 4 5 5 5 5 9 7 8 7 6 6 7 6 8 8 8 8
10 12 8 10 12 12 15 19 17 12 11 5 5 5 4 5 4 2 2 1 1 2 0 2 2 3 4 2 2 7 7 7 9 7 6 6 6 8 8 8 9 9 9
7 8 9 4 9 9 10 7 6 9 14 8 5 4 4 5 5 3 3 5 4 0 3 4 4 3 7 8 5 7 10 10 8 6 7 9 9 10 10 10 10 10 10
Wind_Direction
174 164 159 135 137 152 204 213 188 174 158 162 245 270 284 239 189 177 181 189 194 184 192 194 205 199 208 219 221 234 246 249 248 267 244 228 252 234 260 258 250 263 256
176 193 201 191 150 166 181 199 200 195 196 201 216 285 251 254 150 138 124 125 161 172 189 199 209 225 225 226 225 225 230 245 182 195 256 208 179 171 49 359 307 284 273
193 219 185 180 152 172 178 201 192 204 216 187 150 158 168 186 185 158 161 186 188 228 222 217 226 233 233 229 224 225 225 226 197 220 272 195 237 173 116 55 41 38 46
206 213 181 166 169 187 173 195 190 206 223 199 180 205 243 192 235 163 152 167 193 209 213 215 226 235 235 237 240 233 232 224 193 200 233 254 351 217 183 125 74 58 37
210 219 200 190 175 177 189 190 181 192 220 216 205 203 230 280 142 158 150 138 136 164 167 144 211 203 192 197 200 203 203 211 233 206 168 209 207 230 239 178 156 91 27
219 238 208 196 168 172 188 195 173 197 211 216 202 211 229 196 189 155 185 153 155 144 143 139 238 241 219 218 207 215 223 232 233 234 221 209 195 208 213 181 120 116 49
244 208 191 190 173 187 180 190 186 198 201 220 205 212 238 168 213 189 207 190 187 171 138 209 95 299 236 188 191 220 223 221 230 233 235 231 231 224 217 201 144 135 117
222 201 196 178 177 184 191 196 193 203 203 214 218 215 235 218 222 211 201 214 212 208 140 140 126 158 320 266 197 176 247 218 233 250 248 246 234 219 204 206 168 133 107
231 211 206 184 180 187 198 202 200 211 206 215 220 216 235 232 248 230 201 182 167 162 148 125 133 89 53 47 354 112 244 169 261 267 250 253 231 206 201 207 199 174 154
237 205 193 183 186 194 196 200 199 207 195 201 201 204 193 204 210 201 217 191 155 151 156 145 115 119 105 52 313 189 122 114 19 308 285 258 249 218 198 197 198 151 140
217 199 179 172 178 188 195 194 199 198 186 187 183 190 181 186 191 183 186 177 172 161 154 153 134 141 110 59 44 341 12 230 226 234 303 279 213 207 189 190 185 141 104
202 203 190 179 177 189 192 194 202 202 200 175 182 192 182 179 196 191 183 178 164 169 160 157 176 167 165 152 191 223 219 228 179 303 278 270 142 148 178 156 178 148 126
205 206 196 195 190 193 193 199 199 205 192 167 175 180 179 183 195 197 189 189 189 188 186 179 176 169 145 160 145 249 257 244 224 207 215 158 147 144 166 166 152 127 125
210 205 209 203 193 196 191 197 195 195 176 174 180 180 184 192 194 194 199 202 208 204 184 177 173 170 171 183 193 184 206 230 181 53 34 36 107 144 151 152 157 150 143
211 212 211 204 197 189 188 195 191 184 173 178 183 186 188 198 194 201 206 197 196 208 209 194 183 173 180 181 177 163 153 162 161 114 81 57 53 48 112 163 166 157 151
224 218 211 190 192 193 191 189 186 182 175 180 191 190 187 196 196 203 201 203 212 202 197 202 202 194 194 138 159 187 152 142 170 151 120 111 137 116 120 98 128 160 164
238 227 220 201 185 192 190 188 185 165 174 183 195 194 190 194 204 205 210 220 217 203 210 198 199 215 206 159 162 172 168 166 149 148 157 138 102 147 128 112 110 105 62
253 223 207 196 187 178 188 177 173 165 174 187 193 194 195 198 202 208 228 232 228 227 231 206 197 184 194 162 177 179 184 184 186 172 145 166 149 125 144 146 140 140 154
277 231 209 191 171 176 165 174 169 170 181 188 198 197 201 205 194 212 224 225 224 218 208 235 194 177 176 154 195 201 196 204 213 210 190 191 180 146 195 155 145 147 142
315 209 188 175 160 162 164 156 166 177 193 190 194 193 197 195 198 198 197 183 207 214 174 197 217 198 170 159 191 209 225 218 220 218 203 215 236 162 194 185 172 172 161
334 218 174 156 135 129 141 159 170 178 165 152 164 163 175 172 172 175 182 180 192 193 193 204 194 172 193 183 200 191 225 233 218 222 215 211 181 185 196 248 205 186 157
58 94 93 80 63 52 5 132 140 126 140 127 132 125 126 148 174 179 167 188 202 188 180 188 191 185 178 198 190 209 220 227 233 229 219 215 181 185 182 196 170 155 178
151 124 115 116 102 93 78 338 340 22 99 104 114 114 121 149 164 166 172 172 197 188 175 208 241 223 202 196 187 201 217 222 231 243 250 205 183 178 191 227 174 172 204
190 164 151 149 156 165 140 146 240 154 106 156 164 143 156 175 175 214 229 199 199 187 245 238 243 230 228 208 200 195 208 229 231 246 244 230 213 214 223 175 191 210 212
234 234 230 173 170 157 153 154 173 166 139 189 180 165 171 199 193 199 245 131 38 65 103 252 254 287 273 266 286 212 207 216 216 208 239 231 219 215 219 219 213 210 209
233 220 239 175 139 138 143 154 153 140 138 183 191 183 183 192 203 191 176 178 264 134 286 294 259 276 270 309 339 311 258 239 194 201 216 225 225 223 219 217 220 221 214